Nassau, Bahamas

2:01 PM EDT on September 22, 2017 (GMT -0400)
Nassau International

Weather History for MYNN - January, 2013

Change the Weather History Date:

Wednesday, January 9, 2013

  Actual Average Record
Temperature  
Mean Temperature 78 °F -  
Max Temperature 84 °F 77 °F 86 °F (1998)
Min Temperature 73 °F 62 °F 55 °F (2016)
Cooling Degree Days 14    
Growing Degree Days 28 (Base 50)    
Moisture  
Dew Point 70 °F    
Average Humidity 78    
Maximum Humidity 89    
Minimum Humidity 62    
Precipitation  
Precipitation 0.00 in 0.06 in - ()
Sea Level Pressure  
Sea Level Pressure 30.24 in    
Wind  
Wind Speed 8 mph ()    
Max Wind Speed 16 mph    
Max Gust Speed -    
Visibility 6.6 miles    
Events      
Averages and records for this station are not official NWS values.
T = Trace of Precipitation, MM = Missing Value Source: Averaged Metar Reports

Daily Weather History Graph

Daily Weather History Graph

Search for Another Location

Airport or City:

Trip Planner

Search our weather history database for the weather conditions in past years. The results will help you decide how hot, cold, wet, or windy it might be!

Date:

Astronomy

Jan. 09, 2013 Rise Set
Actual Time 6:56 AM EST 5:37 PM EST
Civil Twilight 6:31 AM EST 6:02 PM EST
Nautical Twilight 6:03 AM EST 6:30 PM EST
Astronomical Twilight 5:35 AM EST 6:58 PM EST
Moon 4:33 AM EST (1/9) 3:37 PM EST (1/9)
Length of Visible Light 11h 30m
Length of Day
10h 41m
Waning Crescent, 6% of the Moon is Illuminated
Jan 9
Waning Crescent
Jan 11
New
Jan 18
First Quarter
Jan 26
Full
Feb 3
Last Quarter

Hourly Weather History & Observations

Time (EST) Temp. Heat Index Dew Point Humidity Pressure Visibility Wind Dir Wind Speed Gust Speed Precip Events Conditions
12:00 AM 75.2 °F - 69.8 °F 83% 30.19 in 6.2 mi NE 8.1 mph - N/A   Mostly Cloudy
1:00 AM 75.2 °F - 71.6 °F 89% 30.19 in 6.2 mi ENE 9.2 mph - N/A   Scattered Clouds
2:00 AM 75.2 °F - 69.8 °F 83% 30.17 in 6.2 mi ENE 8.1 mph - N/A   Scattered Clouds
3:00 AM 75.2 °F - 69.8 °F 83% 30.19 in 6.2 mi ENE 6.9 mph - N/A   Scattered Clouds
5:00 AM 75.2 °F - 69.8 °F 83% 30.19 in 6.2 mi ENE 5.8 mph - N/A   Scattered Clouds
6:00 AM 75.2 °F - 69.8 °F 83% 30.21 in 6.2 mi NE 4.6 mph - N/A   Scattered Clouds
7:00 AM 75 °F - 72 °F 86% 30.24 in 8 mi ENE 5.8 mph - -   Partly Cloudy
7:00 AM 75.2 °F - 71.6 °F 89% 30.24 in 6.2 mi ENE 5.8 mph - N/A   Scattered Clouds
8:00 AM 75.2 °F - 71.6 °F 89% 30.26 in 6.2 mi ENE 5.8 mph - N/A   Scattered Clouds
9:00 AM 77.0 °F - 69.8 °F 78% 30.28 in 6.2 mi ENE 10.4 mph - N/A   Scattered Clouds
10:00 AM 80.6 °F 84.6 °F 71.6 °F 74% 30.29 in 6.2 mi ENE 11.5 mph - N/A   Scattered Clouds
11:00 AM 78.8 °F - 69.8 °F 74% 30.27 in 6.2 mi East 11.5 mph - N/A   Scattered Clouds
12:00 PM 78.8 °F - 69.8 °F 74% 30.25 in 6.2 mi ENE 11.5 mph - N/A   Mostly Cloudy
1:00 PM 83 °F - 72 °F 62% 30.24 in 9 mi East 11.5 mph - -   Partly Cloudy
1:00 PM 84.2 °F 89.6 °F 71.6 °F 66% 30.24 in 6.2 mi East 11.5 mph - N/A   Mostly Cloudy
2:00 PM 78.8 °F - 69.8 °F 74% 30.21 in 6.2 mi East 13.8 mph - N/A   Mostly Cloudy
3:00 PM 78.8 °F - 69.8 °F 74% 30.22 in 6.2 mi East 15.0 mph - N/A   Mostly Cloudy
4:00 PM 80 °F - 72 °F 70% 30.22 in 9 mi East 16.1 mph - -   Partly Cloudy
4:00 PM 80.6 °F 84.6 °F 71.6 °F 74% 30.22 in 6.2 mi East 16.1 mph - N/A   Mostly Cloudy
5:00 PM 77.0 °F - 69.8 °F 78% 30.23 in 6.2 mi ENE 11.5 mph - N/A   Mostly Cloudy
6:00 PM 77.0 °F - 68.0 °F 74% 30.24 in 6.2 mi East 6.9 mph - N/A   Scattered Clouds
7:00 PM 76 °F - 69 °F 75% 30.25 in 9 mi ENE 5.8 mph - -   Scattered Clouds
7:00 PM 77.0 °F - 69.8 °F 78% 30.25 in 6.2 mi ENE 5.8 mph - N/A   Scattered Clouds
8:00 PM 75.2 °F - 68.0 °F 78% 30.28 in - ENE 4.6 mph - N/A   Partly Cloudy
9:00 PM 75.2 °F - 68.0 °F 78% 30.29 in 6.2 mi ENE 5.8 mph - N/A   Partly Cloudy
11:00 PM 73.4 °F - 68.0 °F 83% 30.30 in 6.2 mi ENE 6.9 mph - N/A   Partly Cloudy